[[{"header":{"parameterUnit":"m.s-1","parameterCategory":2,"la1":30.2991,"la2":30.254,"lo1":-89.0895,"lo2":-89.0444,"dy":0.0017,"dx":0.0017,"nx":28,"ny":28,"refTime":"2024-03-01T03:00:00:Z","depth":"0","parameterNumber":2,"parameterNumberName":"U-component_of_CURRENTS"},"data":[0,0,0,0,0,0,0,0,0,0,0,0,0,0,0,0,0,0,0,0,0,0,0,0,0,0,0,0,0,0,0,0,0,0,0,0,0,0,0,0,0,0,0,0,0,0,0,0,0,0,0,0,0,0,0,0,0,0,0.3056,0.3056,0,0.3054,0.3054,0.3053,0.303,0.3029,0.3029,0.3028,0.3013,0.3013,0.3013,0,0,0,0,0,0,0,0,0,0,0,0,0,0.308,0.3079,0.3056,0.3056,0.3056,0.3054,0.3054,0.3053,0.303,0.3029,0.3029,0.3028,0.3013,0.3013,0.3013,0,0,0,0,0,0,0,0,0,0,0,0,0,0.3071,0.3079,0.3056,0.3045,0.3044,0.3054,0.3054,0.3053,0.303,0.3029,0.3029,0.3028,0.3013,0.3013,0.3013,0.3026,0,0,0.3013,0.3013,0,0,0,0,0,0,0,0,0.3071,0.307,0.3047,0.3046,0.3045,0.3043,0.3057,0.3044,0.303,0.3034,0.3028,0.3028,0.3024,0.3023,0.3021,0.3026,0.3025,0.3013,0.3013,0.3013,0.3013,0,0,0,0,0,0,0,0.3072,0.307,0.3053,0.3047,0.3046,0.3055,0.3052,0.3054,0.3031,0.3033,0.3032,0.3035,0.3023,0.3022,0.3021,0.3025,0.3013,0.3013,0.3013,0.3013,0.3082,0.3084,0,0,0,0,0,0,0.3074,0.307,0.3053,0.3053,0.3059,0.3055,0.3052,0.3043,0.3031,0.3029,0.3035,0.3034,0.3022,0.3021,0.302,0.3066,0.3013,0.3013,0.3013,0.3081,0.3083,0.3085,0,0,0,0,0,0,0.3075,0.3072,0.3053,0.3064,0.3062,0.3055,0.3045,0.3043,0.3048,0.3033,0.303,0.3043,0.3021,0.302,0.3039,0.3063,0.3013,0.3013,0.3078,0.3081,0.3084,0.3136,0,0,0,0,0,0,0.3075,0.3072,0.3068,0.3064,0.3062,0.3066,0.3046,0.3044,0.3051,0.3049,0.3039,0.3036,0.3021,0.304,0.3039,0.3063,0.3013,0.3076,0.308,0.3083,0.3132,0.3141,0.3148,0,0,0,0,0,0.3076,0.307,0.3067,0.3066,0.3055,0.3067,0.3067,0.3059,0.3053,0.306,0.306,0.3037,0.3061,0.3041,0.304,0.3064,0.3074,0.3079,0.3083,0.3129,0.3139,0.3147,0,0,0,0,0,0,0.3075,0.3068,0.3064,0.3055,0.3066,0.3064,0.3068,0.3069,0.3074,0.3073,0.3057,0.3056,0.3084,0.3072,0.305,0.3097,0.3066,0.307,0.3101,0.311,0.3118,0.3134,0.3013,0,0,0,0,0,0.3076,0.3069,0.3072,0.3067,0.3073,0.3075,0.308,0.3079,0.3084,0.3085,0.308,0.3084,0.3101,0.3103,0.311,0.3133,0.3143,0.315,0.3158,0.3165,0.318,0.3225,0.3238,0.3098,0.3098,0.3098,0,0,0.3071,0.307,0.3063,0.3068,0.3072,0.3091,0.3076,0.3088,0.3108,0.3084,0.3106,0.3111,0.3115,0.3142,0.3153,0.3134,0.3211,0.317,0.3175,0.3187,0.323,0.3244,0.3256,0.3101,0.3101,0.31,0,0,0.3067,0.3063,0.3059,0.3078,0.3094,0.3103,0.3112,0.3121,0.3129,0.3153,0.3151,0.3176,0.3182,0.32,0.3208,0.3266,0.3253,0.3265,0.331,0.3354,0.3366,0.3376,0.3408,0.3421,0.3264,0.3264,0.3264,0,0.3063,0.3059,0.3064,0.3082,0.3097,0.3114,0.3129,0.3151,0.3166,0.3186,0.3166,0.3216,0.3214,0.327,0.329,0.3283,0.3302,0.327,0.3364,0.3374,0.3384,0.3414,0.3428,0.3267,0.3267,0.3267,0.3266,0,0.3062,0.3071,0.3078,0.3102,0.3124,0.3142,0.3176,0.3207,0.3217,0.3235,0.3286,0.3293,0.3324,0.333,0.3326,0.3401,0.339,0.337,0.3337,0.3401,0.3429,0.3442,0.3272,0.3271,0.327,0.3269,0,0,0.3018,0.3064,0.3068,0.3092,0.3136,0.3157,0.3208,0.3256,0.3299,0.3322,0.337,0.3409,0.3417,0.343,0.3434,0.3472,0.3553,0.3454,0.3455,0.3481,0.365,0.3623,0.3634,0.3548,0.355,0.3552,0.3641,0,0.3014,0.305,0.307,0.3118,0.3144,0.3191,0.324,0.3295,0.3331,0.3388,0.3424,0.3466,0.3455,0.3471,0.3516,0.3552,0.3591,0.3531,0.3589,0.3591,0.3555,0.365,0.3548,0.3617,0.3653,0.3656,0.3657,0,0.2999,0.3032,0.3067,0.314,0.3155,0.3191,0.3277,0.3324,0.3418,0.3443,0.3502,0.3528,0.3611,0.3573,0.368,0.3643,0.3658,0.3673,0.3676,0.3644,0.3589,0.3561,0.364,0.3575,0.3677,0.3675,0.3674,0,0.2969,0.3029,0.3057,0.3083,0.3167,0.32,0.3251,0.334,0.3401,0.3483,0.3546,0.3612,0.3679,0.3711,0.3762,0.3726,0.3867,0.3812,0.38,0.3797,0.372,0.3706,0.3739,0.388,0.388,0.3879,0.3879,0,0.2954,0.2983,0.3051,0.3074,0.3137,0.3192,0.3266,0.3329,0.343,0.3514,0.3579,0.366,0.3723,0.381,0.3806,0.3869,0.3907,0.384,0.3834,0.3735,0.3723,0.3667,0.3627,0.3883,0.3882,0.3881,0.3881,0,0.2924,0.2958,0.3011,0.3095,0.3123,0.3175,0.3289,0.3345,0.345,0.3566,0.3603,0.3742,0.3845,0.3903,0.397,0.3951,0.3878,0.3976,0.3856,0.3834,0.373,0.3696,0.3556,0.3447,0.3974,0.3974,0.3974,0,0.2915,0.2934,0.3024,0.3055,0.3093,0.3174,0.3225,0.3335,0.3402,0.3608,0.3665,0.3821,0.389,0.4009,0.4004,0.4015,0.3887,0.392,0.3827,0.3745,0.3702,0.3513,0.3418,0.3745,0.3743,0.3742,0.3741,0,0.291,0.2936,0.2982,0.304,0.309,0.3153,0.3239,0.3296,0.3433,0.3543,0.3663,0.3734,0.3894,0.3875,0.394,0.3924,0.3744,0.3889,0.3839,0.3571,0.3332,0.3218,0.3661,0.3727,0.3729,0.373,0.373,0.3731,0.2911,0.2933,0.2973,0.3017,0.3065,0.3087,0.3092,0.3184,0.3267,0.3365,0.3541,0.3598,0.3741,0.3814,0.3776,0.3719,0.3651,0.3626,0.3607,0.3434,0.3277,0.3695,0.3728,0.3729,0.373,0.3731,0.3732,0,0.2886,0.2897,0.2941,0.2959,0.2948,0.3004,0.3055,0.3023,0.3036,0.3192,0.3261,0.341,0.3444,0.3526,0.3586,0.3478,0.3265,0.339,0.3116,0.3048,0.3477,0.3417,0.334,0.334,0.334,0.334,0.3341,0.3341,0.2874,0.2868,0.2865,0.2812,0.2817,0.2744,0.2731,0.2704,0.2771,0.2805,0.2884,0.3008,0.3295,0.3437,0.3384,0.3296,0.3044,0.2902,0.2866,0.3218,0.3238,0.3256,0.3192,0.3069,0.3069,0.2302,0.2297,0.2293]},{"header":{"parameterUnit":"m.s-1","parameterCategory":2,"la1":30.2991,"la2":30.254,"lo1":-89.0895,"lo2":-89.0444,"dy":0.0017,"dx":0.0017,"nx":28,"ny":28,"refTime":"2024-03-01T03:00:00:Z","depth":"0","parameterNumber":3,"parameterNumberName":"V-component_of_CURRENTS"},"data":[0,0,0,0,0,0,0,0,0,0,0,0,0,0,0,0,0,0,0,0,0,0,0,0,0,0,0,0,0,0,0,0,0,0,0,0,0,0,0,0,0,0,0,0,0,0,0,0,0,0,0,0,0,0,0,0,0,0,0.0256,0.0256,0,0.0205,0.0204,0.0203,0.0164,0.0164,0.0163,0.0163,0.0079,0.0077,0.0075,0,0,0,0,0,0,0,0,0,0,0,0,0,0.027,0.027,0.0256,0.0256,0.0255,0.0205,0.0204,0.0203,0.0164,0.0164,0.0163,0.0163,0.008,0.0077,0.0075,0,0,0,0,0,0,0,0,0,0,0,0,0,0.0244,0.027,0.0256,0.0231,0.0229,0.0205,0.0204,0.0203,0.0164,0.0164,0.0163,0.0163,0.008,0.0077,0.0074,0.0061,0,0,0.0065,0.0064,0,0,0,0,0,0,0,0,0.0246,0.0243,0.0235,0.0233,0.023,0.0192,0.0178,0.0155,0.0164,0.0186,0.0163,0.0163,0.0115,0.0109,0.0098,0.0057,0.0054,0.0065,0.0063,0.0061,0.0061,0,0,0,0,0,0,0,0.0248,0.0245,0.0234,0.0235,0.0232,0.0205,0.0201,0.0173,0.0151,0.0184,0.0182,0.0179,0.0113,0.0101,0.0096,0.0052,0.0065,0.0062,0.006,0.0059,-0.0001,-0.0001,0,0,0,0,0,0,0.0261,0.0247,0.0236,0.0233,0.0239,0.0206,0.0201,0.0203,0.0152,0.0145,0.018,0.0178,0.0107,0.0099,0.0093,0.0094,0.0062,0.0059,0.0057,-0.0002,-0.0001,-0.0001,0,0,0,0,0,0,0.0261,0.0261,0.0238,0.024,0.0235,0.0206,0.0208,0.0202,0.0195,0.0149,0.0141,0.0179,0.0106,0.0097,0.0078,0.009,0.0057,0.0054,-0.0002,-0.0001,-0.0001,0.0085,0,0,0,0,0,0,0.0262,0.0261,0.0265,0.0241,0.0236,0.0236,0.0208,0.0202,0.0194,0.0191,0.0146,0.0137,0.0105,0.0083,0.0075,0.0085,0.0052,-0.0002,-0.0002,-0.0001,0.0081,0.0088,0.0093,0,0,0,0,0,0.0263,0.0276,0.0265,0.0264,0.0243,0.0237,0.0232,0.0208,0.0195,0.0198,0.0168,0.0139,0.008,0.0081,0.0072,0.0081,-0.0002,-0.0002,-0.0001,0.0079,0.0087,0.0093,0,0,0,0,0,0,0.0286,0.0273,0.026,0.0269,0.0258,0.0231,0.0231,0.0216,0.0194,0.019,0.0145,0.0135,0.0122,0.0088,0.0091,0.0063,0.0032,0.0031,0.0096,0.0103,0.0109,0.0132,0.0049,0,0,0,0,0,0.0293,0.0297,0.0281,0.0287,0.0284,0.0258,0.0252,0.0238,0.0217,0.0208,0.0176,0.0141,0.0115,0.0101,0.0071,0.0059,0.0024,0.0056,0.0062,0.0067,0.0078,0.0034,0.0037,0.0001,0.0001,0.0001,0,0,0.0302,0.0296,0.0297,0.0292,0.0278,0.0289,0.0253,0.0253,0.0262,0.0202,0.0201,0.0162,0.0116,0.0104,0.0094,0.008,0.0059,0.0068,0.0073,0.0081,0.0035,0.0038,0.0041,0.0001,0.0001,0.0001,0,0,0.0332,0.032,0.0336,0.0332,0.0324,0.0313,0.0318,0.0297,0.0287,0.028,0.024,0.0211,0.0172,0.0142,0.0122,0.0141,0.0092,0.0129,0.0179,0.0136,0.0139,0.0141,0.0106,0.0104,0.0133,0.0133,0.0133,0,0.0344,0.0365,0.034,0.0357,0.0362,0.0331,0.0355,0.0343,0.032,0.0318,0.0292,0.0234,0.019,0.0178,0.0183,0.0155,0.0127,0.016,0.0146,0.0147,0.0147,0.011,0.0107,0.0137,0.0137,0.0136,0.0136,0,0.0387,0.0403,0.0415,0.0428,0.0428,0.0445,0.043,0.0435,0.0416,0.0395,0.0376,0.0314,0.0281,0.0258,0.0226,0.0214,0.0192,0.016,0.0133,0.0157,0.0115,0.0111,0.0143,0.0142,0.014,0.0139,0,0,0.0419,0.0443,0.0446,0.0471,0.0469,0.0482,0.0502,0.0511,0.0534,0.0486,0.0502,0.0433,0.0392,0.0366,0.0316,0.0275,0.0247,0.0229,0.0225,0.0204,0.0162,0.0156,0.015,0.0217,0.0216,0.0216,0.0133,0,0.0463,0.0519,0.0512,0.0568,0.0599,0.0584,0.0615,0.0614,0.0594,0.0601,0.0528,0.0511,0.0436,0.0422,0.0372,0.0286,0.0239,0.0273,0.0133,0.0129,0.0129,0.0145,0.0176,0.0106,0.0128,0.0127,0.0127,0,0.0511,0.0545,0.0609,0.0662,0.0674,0.0704,0.0748,0.0766,0.0757,0.0734,0.0692,0.0635,0.0576,0.0504,0.0364,0.0394,0.0287,0.0208,0.0202,0.0166,0.0115,0.0083,0.0096,-0.0067,0.0119,0.0119,0.012,0,0.0559,0.0614,0.0674,0.0688,0.074,0.0775,0.0803,0.0812,0.085,0.0814,0.0836,0.0732,0.0709,0.056,0.0398,0.038,0.0247,0.0193,0.0085,0.0083,0.0066,0.0064,-0.0085,0.0086,0.0087,0.0087,0.0087,0,0.0618,0.0664,0.071,0.0745,0.0842,0.084,0.093,0.0935,0.0963,0.1029,0.0912,0.0941,0.0724,0.0627,0.0444,0.0268,0.0274,0.0103,0.0064,0.0097,0.0098,-0.008,-0.0173,0.0084,0.0084,0.0085,0.0086,0,0.067,0.0692,0.0773,0.0839,0.0872,0.0941,0.1037,0.1099,0.1102,0.1188,0.1187,0.1106,0.097,0.0752,0.0518,0.0353,0.0066,0.0087,0.0147,0.0117,-0.0141,-0.0228,-0.0417,-0.0499,-0.0049,-0.0049,-0.005,0,0.0706,0.0753,0.0849,0.0913,0.0952,0.1051,0.1132,0.1167,0.1238,0.1304,0.1361,0.1264,0.1219,0.0875,0.0547,0.023,0.0053,0.005,0.0008,-0.0141,-0.0269,-0.0336,-0.0396,0.0014,0.0014,0.0014,0.0014,0,0.0783,0.0813,0.0882,0.101,0.1106,0.122,0.1332,0.1418,0.1482,0.1551,0.1621,0.1591,0.1289,0.0986,0.056,0.0331,-0.0053,0.0041,-0.0135,-0.0243,-0.0305,-0.0404,0.0055,0.0015,0.0015,0.0015,0.0014,0.0014,0.0844,0.0909,0.0997,0.1121,0.1233,0.1374,0.1476,0.1596,0.173,0.1855,0.182,0.1817,0.141,0.083,0.0498,-0.0051,-0.0074,-0.0218,-0.0315,-0.0372,-0.0441,0.0029,-0.0041,-0.0041,-0.0042,-0.0042,-0.0042,0,0.0914,0.0984,0.1101,0.1243,0.1365,0.1414,0.1601,0.1703,0.1866,0.1992,0.2041,0.1874,0.1353,0.0823,0.0088,-0.0318,-0.0478,-0.0544,-0.0641,-0.0691,-0.0289,-0.0276,-0.0372,-0.0372,-0.0371,-0.0371,-0.0371,-0.0371,0.0955,0.1065,0.1119,0.1325,0.1426,0.1593,0.1701,0.1856,0.1984,0.2129,0.2166,0.2166,0.1813,0.0474,-0.0437,-0.0666,-0.0936,-0.1,-0.1157,-0.089,-0.0867,-0.0845,-0.0855,-0.1071,-0.1072,-0.1498,-0.1502,-0.1506]}],[{"header":{"parameterUnit":"m.s-1","parameterCategory":2,"la1":30.2991,"la2":30.254,"lo1":-89.0895,"lo2":-89.0444,"dy":0.0017,"dx":0.0017,"nx":28,"ny":28,"refTime":"2024-03-01T03:00:00:Z","depth":"2","parameterNumber":2,"parameterNumberName":"U-component_of_CURRENTS"},"data":[0,0,0,0,0,0,0,0,0,0,0,0,0,0,0,0,0,0,0,0,0,0,0,0,0,0,0,0,0,0,0,0,0,0,0,0,0,0,0,0,0,0,0,0,0,0,0,0,0,0,0,0,0,0,0,0,0,0,0.2777,0.2777,0,0.2795,0.2795,0.2795,0.2791,0.2791,0.2791,0.2791,0.2797,0.2797,0.2798,0,0,0,0,0,0,0,0,0,0,0,0,0,0.2745,0.2746,0.2777,0.2777,0.2778,0.2795,0.2795,0.2795,0.2791,0.2791,0.2791,0.2791,0.2797,0.2797,0.2798,0,0,0,0,0,0,0,0,0,0,0,0,0,0.2759,0.2746,0.2777,0.2779,0.278,0.2795,0.2795,0.2795,0.2791,0.2791,0.2791,0.2791,0.2797,0.2797,0.2798,0.2804,0,0,0.2799,0.2799,0,0,0,0,0,0,0,0,0.2758,0.276,0.2779,0.2779,0.278,0.2793,0.2787,0.2798,0.2791,0.2785,0.2791,0.2791,0.2796,0.2797,0.2797,0.2804,0.2805,0.2799,0.2799,0.2799,0.2799,0,0,0,0,0,0,0,0.2757,0.2759,0.2782,0.2779,0.278,0.2783,0.2784,0.2789,0.2789,0.2785,0.2786,0.2791,0.2796,0.2797,0.2797,0.2805,0.2799,0.2799,0.28,0.28,0.2875,0.2876,0,0,0,0,0,0,0.2759,0.2758,0.2781,0.2782,0.2771,0.2783,0.2785,0.2787,0.2789,0.279,0.2792,0.2791,0.2796,0.2797,0.2798,0.285,0.2799,0.28,0.28,0.2873,0.2875,0.2877,0,0,0,0,0,0,0.2759,0.2761,0.278,0.2773,0.2776,0.2784,0.2787,0.2788,0.2802,0.2795,0.2795,0.2807,0.2796,0.2797,0.2822,0.2849,0.28,0.28,0.2871,0.2874,0.2876,0.2927,0,0,0,0,0,0,0.2757,0.276,0.2767,0.2773,0.2776,0.2799,0.2787,0.2788,0.2806,0.2806,0.2808,0.2807,0.2796,0.2821,0.2822,0.2849,0.2801,0.2869,0.2872,0.2875,0.2923,0.2931,0.2938,0,0,0,0,0,0.2756,0.2762,0.2767,0.277,0.2783,0.28,0.2803,0.2806,0.2807,0.2818,0.2825,0.2808,0.2843,0.2823,0.2824,0.2851,0.2867,0.2871,0.2875,0.292,0.293,0.2938,0,0,0,0,0,0,0.2748,0.2763,0.2768,0.2777,0.2794,0.2801,0.2811,0.2818,0.2832,0.2835,0.2827,0.2827,0.2861,0.2853,0.2831,0.2885,0.2854,0.2858,0.2888,0.2897,0.2904,0.2917,0.2801,0,0,0,0,0,0.2751,0.276,0.2777,0.2786,0.2797,0.2809,0.2818,0.2826,0.2838,0.2844,0.2847,0.2857,0.2876,0.2883,0.2894,0.2919,0.2929,0.294,0.2947,0.2953,0.2966,0.3009,0.3021,0.289,0.289,0.289,0,0,0.2749,0.276,0.2764,0.2786,0.2798,0.282,0.2814,0.2836,0.2858,0.2843,0.2874,0.2883,0.289,0.2922,0.2936,0.2918,0.2997,0.2958,0.2963,0.2973,0.3015,0.3027,0.3039,0.2893,0.2892,0.2892,0,0,0.2749,0.2763,0.2772,0.2794,0.2822,0.2834,0.2846,0.2867,0.2882,0.2913,0.2915,0.2946,0.2961,0.2978,0.2988,0.3044,0.3037,0.3048,0.3092,0.3133,0.3144,0.3154,0.3184,0.3196,0.3049,0.3049,0.3049,0,0.2747,0.276,0.2778,0.28,0.2819,0.2845,0.2865,0.289,0.2918,0.2941,0.293,0.2988,0.299,0.3044,0.3066,0.3061,0.308,0.3053,0.3142,0.3152,0.3162,0.319,0.3203,0.3052,0.3052,0.3051,0.3051,0,0.2755,0.2775,0.2786,0.2821,0.2846,0.287,0.2908,0.2944,0.2965,0.2988,0.3046,0.3058,0.3095,0.3103,0.3101,0.3174,0.3166,0.3147,0.3117,0.3178,0.3204,0.3216,0.3056,0.3055,0.3054,0.3053,0,0,0.2722,0.2778,0.2783,0.2808,0.286,0.2882,0.2936,0.2989,0.3033,0.3068,0.3121,0.3164,0.3181,0.3195,0.3202,0.3239,0.3318,0.3227,0.3228,0.3252,0.3412,0.3375,0.3385,0.3317,0.3319,0.3321,0.3404,0,0.2721,0.276,0.2789,0.2836,0.2861,0.2914,0.2962,0.3021,0.3067,0.3128,0.317,0.3219,0.3213,0.3237,0.328,0.3315,0.3354,0.3297,0.3354,0.3356,0.3312,0.3399,0.3136,0.3186,0.3416,0.3418,0.342,0,0.2713,0.2745,0.2782,0.2853,0.2869,0.2905,0.2994,0.3044,0.3143,0.3177,0.3245,0.3278,0.3361,0.333,0.3434,0.3402,0.3419,0.3433,0.3436,0.3393,0.3343,0.3163,0.3199,0.344,0.3438,0.3437,0.3435,0,0.2677,0.274,0.2768,0.2793,0.2875,0.2912,0.2966,0.3062,0.3122,0.3219,0.328,0.3355,0.3424,0.3459,0.3513,0.3481,0.3612,0.3563,0.3543,0.3539,0.3323,0.3297,0.3628,0.3628,0.3628,0.3628,0.3627,0,0.266,0.2687,0.2759,0.2778,0.2834,0.29,0.2974,0.3042,0.3149,0.3227,0.3312,0.3387,0.3466,0.355,0.3553,0.3608,0.365,0.3578,0.3571,0.3334,0.3309,0.3529,0.3516,0.3631,0.363,0.3629,0.3629,0,0.2618,0.2659,0.2704,0.2788,0.2817,0.2865,0.2983,0.3038,0.3155,0.3264,0.3304,0.3455,0.3561,0.3628,0.37,0.3679,0.3705,0.3702,0.3421,0.3381,0.3588,0.3577,0.3687,0.3687,0.3687,0.3686,0.3686,0,0.2598,0.2614,0.2701,0.2731,0.2771,0.2849,0.2901,0.302,0.3086,0.3291,0.3339,0.3504,0.3575,0.3698,0.3684,0.3698,0.3734,0.3457,0.3347,0.3618,0.3601,0.359,0.358,0.3074,0.3069,0.3065,0.3061,0,0.2565,0.2597,0.2636,0.2694,0.2745,0.2802,0.2891,0.2939,0.3085,0.3185,0.3309,0.3386,0.3541,0.3452,0.3514,0.3473,0.3432,0.3373,0.3739,0.311,0.305,0.3029,0.3037,0.3024,0.3027,0.303,0.3032,0.3034,0.2541,0.2555,0.2602,0.2642,0.2698,0.2726,0.2723,0.2821,0.2894,0.2993,0.3158,0.319,0.3257,0.3219,0.3127,0.3068,0.3295,0.313,0.3139,0.3153,0.3078,0.3021,0.2975,0.2978,0.2981,0.2984,0.2986,0,0.2493,0.251,0.2547,0.2569,0.2565,0.2636,0.2682,0.2647,0.2659,0.2805,0.2877,0.2706,0.2687,0.2738,0.2605,0.2623,0.2544,0.2501,0.2365,0.2409,0.2446,0.2328,0.2029,0.2025,0.2022,0.2019,0,0,0.2472,0.2462,0.2458,0.2411,0.243,0.2374,0.2361,0.2338,0.2395,0.2379,0.2387,0.2603,0.271,0.2345,0.2309,0.2144,0.2247,0.2061,0.2844,0.2733,0.2764,0.2845,0.272,0,0,0,0,0]},{"header":{"parameterUnit":"m.s-1","parameterCategory":2,"la1":30.2991,"la2":30.254,"lo1":-89.0895,"lo2":-89.0444,"dy":0.0017,"dx":0.0017,"nx":28,"ny":28,"refTime":"2024-03-01T03:00:00:Z","depth":"2","parameterNumber":3,"parameterNumberName":"V-component_of_CURRENTS"},"data":[0,0,0,0,0,0,0,0,0,0,0,0,0,0,0,0,0,0,0,0,0,0,0,0,0,0,0,0,0,0,0,0,0,0,0,0,0,0,0,0,0,0,0,0,0,0,0,0,0,0,0,0,0,0,0,0,0,0,0.0114,0.0114,0,0.0072,0.0072,0.0071,0.004,0.0039,0.0039,0.0039,-0.0035,-0.0037,-0.0039,0,0,0,0,0,0,0,0,0,0,0,0,0,0.0114,0.0114,0.0115,0.0114,0.0114,0.0072,0.0072,0.0071,0.004,0.0039,0.0039,0.0039,-0.0034,-0.0037,-0.0039,0,0,0,0,0,0,0,0,0,0,0,0,0,0.0095,0.0114,0.0115,0.0095,0.0093,0.0073,0.0072,0.0071,0.004,0.0039,0.0039,0.0039,-0.0034,-0.0037,-0.0039,-0.0054,0,0,-0.0048,-0.0049,0,0,0,0,0,0,0,0,0.0097,0.0095,0.0098,0.0096,0.0094,0.0063,0.0044,0.0028,0.004,0.0058,0.0039,0.0039,-0.0004,-0.0009,-0.0019,-0.0058,-0.0061,-0.0048,-0.005,-0.0051,-0.0052,0,0,0,0,0,0,0,0.0098,0.0097,0.0096,0.0098,0.0095,0.007,0.0067,0.0041,0.0026,0.0056,0.0054,0.0053,-0.0006,-0.0016,-0.0021,-0.0062,-0.0048,-0.0051,-0.0052,-0.0054,-0.0109,-0.0109,0,0,0,0,0,0,0.011,0.0098,0.0097,0.0095,0.0097,0.007,0.0067,0.0071,0.0027,0.0021,0.0053,0.0051,-0.0012,-0.0018,-0.0024,-0.0021,-0.0051,-0.0054,-0.0055,-0.0109,-0.0109,-0.0109,0,0,0,0,0,0,0.0111,0.0111,0.0099,0.0097,0.0094,0.0071,0.0075,0.0071,0.0065,0.0025,0.0018,0.0054,-0.0012,-0.002,-0.0036,-0.0025,-0.0055,-0.0058,-0.011,-0.0109,-0.0109,-0.0029,0,0,0,0,0,0,0.0111,0.0111,0.0116,0.0098,0.0094,0.0098,0.0075,0.007,0.0065,0.0063,0.0023,0.0016,-0.0013,-0.0032,-0.0039,-0.0029,-0.006,-0.011,-0.0109,-0.0109,-0.0032,-0.0026,-0.0021,0,0,0,0,0,0.0111,0.0125,0.0117,0.0117,0.0103,0.0099,0.0095,0.0076,0.0066,0.007,0.0044,0.0018,-0.0035,-0.0034,-0.0042,-0.0033,-0.011,-0.011,-0.0109,-0.0034,-0.0027,-0.0021,0,0,0,0,0,0,0.0128,0.0123,0.0114,0.0125,0.0117,0.0095,0.0096,0.0083,0.0065,0.0062,0.0023,0.0014,0.0002,-0.0028,-0.0026,-0.005,-0.0078,-0.0079,-0.0018,-0.0012,-0.0006,0.0015,-0.0062,0,0,0,0,0,0.0135,0.0143,0.0132,0.014,0.0139,0.0118,0.0113,0.0103,0.0085,0.0077,0.005,0.002,-0.0004,-0.0016,-0.0044,-0.0054,-0.0087,-0.0056,-0.005,-0.0045,-0.0035,-0.0077,-0.0074,-0.0107,-0.0107,-0.0107,0,0,0.0142,0.0141,0.0144,0.0143,0.0133,0.0146,0.0114,0.0115,0.0126,0.0072,0.0074,0.0038,-0.0003,-0.0013,-0.0022,-0.0035,-0.0053,-0.0045,-0.004,-0.0032,-0.0076,-0.0073,-0.007,-0.0107,-0.0107,-0.0107,0,0,0.0169,0.0162,0.018,0.0178,0.0174,0.0166,0.0172,0.0157,0.015,0.0145,0.0109,0.0084,0.0048,0.0023,0.0005,0.0022,-0.0023,0.0011,0.0059,0.0018,0.0021,0.0023,-0.001,-0.0011,0.0015,0.0015,0.0016,0,0.0179,0.0202,0.0183,0.0201,0.0209,0.0183,0.0208,0.0199,0.018,0.0179,0.0156,0.0105,0.0066,0.0057,0.0062,0.0036,0.0009,0.0041,0.0027,0.0028,0.0029,-0.0006,-0.0008,0.0019,0.0019,0.0018,0.0018,0,0.0219,0.0238,0.0249,0.0267,0.027,0.0287,0.0278,0.0284,0.0269,0.0251,0.0235,0.018,0.0152,0.0131,0.0102,0.0092,0.007,0.004,0.0015,0.0037,-0.0001,-0.0005,0.0025,0.0024,0.0022,0.0021,0,0,0.0246,0.0274,0.0278,0.0304,0.0309,0.0323,0.0344,0.0355,0.0376,0.0336,0.0351,0.0292,0.0255,0.0232,0.0186,0.0148,0.0123,0.0105,0.0101,0.0082,0.0042,0.0025,0.0018,0.0093,0.0093,0.0093,0.0016,0,0.0287,0.0343,0.034,0.0396,0.0428,0.0418,0.0449,0.0451,0.0434,0.044,0.0376,0.0362,0.0296,0.0284,0.0238,0.0156,0.0115,0.0147,0.0015,0.0012,0.0001,0.0014,0.004,-0.0026,0.0011,0.0011,0.001,0,0.0332,0.0367,0.0429,0.0483,0.0496,0.0525,0.0569,0.0589,0.0581,0.0562,0.0526,0.0474,0.0422,0.0358,0.023,0.0256,0.016,0.0086,0.008,0.0035,-0.0013,-0.0045,-0.0036,0.0002,0.0003,0.0003,0.0004,0,0.0374,0.0431,0.0488,0.0503,0.0556,0.0588,0.0617,0.0627,0.0661,0.0635,0.0652,0.0563,0.054,0.0407,0.0256,0.0242,0.0112,0.0068,-0.0039,-0.0042,-0.006,-0.0063,-0.0028,-0.0028,-0.0028,-0.0027,-0.0027,0,0.0427,0.0472,0.0517,0.0549,0.0638,0.0645,0.0723,0.0734,0.076,0.0815,0.072,0.074,0.0552,0.0459,0.0295,0.0126,0.0137,-0.0024,-0.0061,-0.0032,-0.0031,-0.0042,-0.0042,-0.003,-0.003,-0.0029,-0.0029,0,0.0467,0.0493,0.0566,0.0631,0.0662,0.0723,0.0811,0.0866,0.0874,0.0945,0.0946,0.0878,0.0752,0.0558,0.0346,0.0196,0.0017,-0.0051,0.0002,-0.0028,-0.0122,-0.0118,-0.0179,-0.018,-0.0181,-0.0182,-0.0183,0,0.0493,0.0534,0.0627,0.0684,0.0718,0.0808,0.0882,0.092,0.0981,0.1037,0.1083,0.0995,0.0951,0.0636,0.0345,0.0062,0.0018,-0.0105,-0.0136,-0.0107,-0.0137,-0.0131,-0.0126,-0.0132,-0.0132,-0.0132,-0.0132,0,0.0545,0.0575,0.0639,0.0757,0.0842,0.0944,0.1044,0.1116,0.1179,0.1235,0.1293,0.1265,0.0994,0.0715,0.0331,0.0134,-0.0061,-0.0118,-0.0102,-0.0092,-0.0067,-0.0095,-0.009,-0.0134,-0.0134,-0.0134,-0.0133,-0.0133,0.0585,0.0641,0.0728,0.084,0.0944,0.1071,0.1158,0.1263,0.1377,0.148,0.1449,0.1417,0.1114,0.0629,0.0285,-0.0075,-0.0059,-0.0193,-0.019,-0.0188,-0.0164,-0.0141,-0.0217,-0.0217,-0.0217,-0.0218,-0.0218,0,0.0638,0.0703,0.0806,0.0938,0.105,0.1102,0.1263,0.1345,0.1481,0.1583,0.1624,0.1343,0.1037,0.068,0.0154,-0.016,-0.0188,-0.0268,-0.023,-0.0225,-0.0222,-0.0199,-0.0262,-0.0263,-0.0264,-0.0265,0,0,0.067,0.0769,0.0817,0.1,0.1097,0.1249,0.1343,0.1467,0.1566,0.1649,0.1647,0.1608,0.1174,0.0785,0.0353,0.0048,-0.0018,-0.0019,0.0053,0.0154,0.0162,-0.0142,-0.0097,0,0,0,0,0]}],[{"header":{"parameterUnit":"m.s-1","parameterCategory":2,"la1":30.2991,"la2":30.254,"lo1":-89.0895,"lo2":-89.0444,"dy":0.0017,"dx":0.0017,"nx":28,"ny":28,"refTime":"2024-03-01T03:00:00:Z","depth":"4","parameterNumber":2,"parameterNumberName":"U-component_of_CURRENTS"},"data":[0,0,0,0,0,0,0,0,0,0,0,0,0,0,0,0,0,0,0,0,0,0,0,0,0,0,0,0,0,0,0,0,0,0,0,0,0,0,0,0,0,0,0,0,0,0,0,0,0,0,0,0,0,0,0,0,0,0,0.1818,0.1819,0,0.189,0.189,0.1891,0.1951,0.1952,0.1953,0.1953,0.2037,0.2038,0.2039,0,0,0,0,0,0,0,0,0,0,0,0,0,0.1712,0.1714,0.1818,0.1819,0.182,0.189,0.189,0.1891,0.1951,0.1952,0.1953,0.1954,0.2036,0.2038,0.204,0,0,0,0,0,0,0,0,0,0,0,0,0,0.1766,0.1714,0.1818,0.186,0.1865,0.189,0.1891,0.1891,0.195,0.1952,0.1953,0.1954,0.2036,0.2038,0.204,0.2027,0,0,0.2046,0.2047,0,0,0,0,0,0,0,0,0.1763,0.177,0.1853,0.1857,0.1862,0.1915,0.1884,0.1938,0.195,0.1915,0.1953,0.1955,0.1998,0.2003,0.201,0.2031,0.2035,0.2047,0.2048,0.2049,0.2049,0,0,0,0,0,0,0,0.1759,0.1767,0.1844,0.1854,0.186,0.1869,0.1878,0.1894,0.1947,0.1918,0.1924,0.1935,0.2,0.2008,0.2012,0.2036,0.2046,0.2048,0.205,0.2051,0.2172,0.2174,0,0,0,0,0,0,0.1755,0.1763,0.1842,0.1846,0.1818,0.187,0.188,0.1895,0.1946,0.1956,0.1934,0.1938,0.2003,0.201,0.2016,0.211,0.2049,0.2051,0.2052,0.217,0.2173,0.2175,0,0,0,0,0,0,0.1753,0.1761,0.1839,0.1808,0.1819,0.1871,0.1887,0.1895,0.1944,0.1958,0.1968,0.1978,0.2005,0.2013,0.2069,0.211,0.2052,0.2054,0.2168,0.2171,0.2174,0.223,0,0,0,0,0,0,0.1749,0.176,0.1787,0.1808,0.1821,0.1878,0.1886,0.1896,0.1948,0.1954,0.1999,0.2006,0.2006,0.2066,0.2072,0.2112,0.2055,0.2166,0.217,0.2173,0.2226,0.2235,0.2242,0,0,0,0,0,0.1745,0.1768,0.1787,0.1798,0.185,0.1879,0.1887,0.1925,0.1949,0.1974,0.2011,0.2006,0.2094,0.207,0.2075,0.2117,0.2164,0.2168,0.2173,0.2222,0.2233,0.2242,0,0,0,0,0,0,0.1735,0.1777,0.1799,0.1835,0.1868,0.1891,0.1923,0.1947,0.1995,0.2015,0.2028,0.2037,0.2102,0.2103,0.2076,0.2164,0.213,0.2135,0.2165,0.2176,0.2184,0.2186,0.2057,0,0,0,0,0,0.1744,0.1778,0.1812,0.1846,0.1866,0.1903,0.1928,0.1955,0.199,0.2015,0.2046,0.2083,0.2116,0.2143,0.2167,0.2213,0.2218,0.2245,0.2254,0.226,0.2268,0.2311,0.2323,0.2189,0.2189,0.2189,0,0,0.1751,0.1779,0.1801,0.1848,0.1879,0.191,0.1922,0.1971,0.2008,0.2015,0.2087,0.2115,0.2136,0.219,0.2219,0.2201,0.2303,0.2266,0.2272,0.2275,0.2317,0.233,0.2341,0.2192,0.2192,0.2191,0,0,0.1763,0.1807,0.1836,0.1868,0.1923,0.1943,0.1966,0.2014,0.2053,0.2112,0.2133,0.2187,0.2236,0.2261,0.2277,0.2346,0.2344,0.2363,0.2408,0.245,0.2461,0.2471,0.2496,0.2507,0.2367,0.2367,0.2367,0,0.1773,0.1809,0.1848,0.1881,0.1912,0.1961,0.1994,0.2035,0.2099,0.2137,0.2147,0.2246,0.2267,0.2331,0.2361,0.2364,0.2385,0.2365,0.246,0.247,0.2479,0.2502,0.2514,0.2371,0.237,0.237,0.237,0,0.1792,0.1838,0.1859,0.1917,0.1954,0.1994,0.2048,0.2106,0.2159,0.2197,0.2288,0.2321,0.2381,0.24,0.2404,0.2485,0.2478,0.2463,0.2431,0.2495,0.2516,0.2527,0.2375,0.2374,0.2373,0.2372,0,0,0.1769,0.1855,0.1867,0.1901,0.1979,0.2007,0.2083,0.2154,0.2214,0.2286,0.2358,0.2428,0.2464,0.2485,0.2506,0.2546,0.2628,0.2543,0.2543,0.256,0.2723,0.2558,0.2554,0.2637,0.2639,0.2641,0.2712,0,0.1775,0.1832,0.1878,0.1944,0.1976,0.205,0.2111,0.2189,0.2263,0.2346,0.2408,0.2483,0.2492,0.2535,0.2582,0.2623,0.2662,0.261,0.2664,0.2666,0.2505,0.2563,0.2648,0.272,0.2723,0.2725,0.2726,0,0.177,0.1812,0.187,0.1959,0.1983,0.2036,0.2148,0.2214,0.2337,0.2394,0.2487,0.254,0.2637,0.262,0.273,0.2704,0.2725,0.2741,0.2744,0.2576,0.2521,0.2643,0.2746,0.2745,0.2743,0.2742,0.2741,0,0.1715,0.1805,0.1852,0.1884,0.1989,0.2046,0.2117,0.2238,0.2305,0.2442,0.2511,0.2613,0.2694,0.274,0.28,0.278,0.2896,0.2863,0.2729,0.2718,0.282,0.2809,0.2926,0.2926,0.2925,0.2925,0.2925,0,0.1682,0.1726,0.184,0.1865,0.1934,0.2029,0.2125,0.2209,0.2339,0.2419,0.2545,0.2615,0.2736,0.2817,0.2832,0.2821,0.2928,0.2745,0.2728,0.2842,0.2833,0.2828,0.2815,0.2928,0.2927,0.2927,0.2926,0,0.1607,0.1684,0.1743,0.1865,0.191,0.1966,0.2118,0.218,0.2329,0.244,0.2492,0.2658,0.2758,0.2846,0.2929,0.2856,0.2854,0.282,0.2948,0.2936,0.2637,0.2628,0.2664,0.2659,0.2654,0.2651,0.2648,0,0.1569,0.1593,0.1724,0.1764,0.1827,0.1932,0.1996,0.215,0.2214,0.2439,0.2469,0.2642,0.2731,0.2722,0.2815,0.2825,0.2794,0.2768,0.2685,0.2632,0.2613,0.261,0.2606,0.2641,0.2639,0.2638,0.2637,0,0.1489,0.1551,0.1602,0.1683,0.1759,0.1827,0.1938,0.1966,0.2148,0.2311,0.2389,0.245,0.2563,0.2615,0.2656,0.2652,0.2765,0.2721,0.2729,0.265,0.2604,0.2589,0.259,0.2622,0.2624,0.2626,0.2626,0,0.1433,0.1445,0.1523,0.1582,0.1665,0.1691,0.1767,0.1846,0.1929,0.217,0.2189,0.2374,0.2534,0.2527,0.2556,0.2551,0.2504,0.2404,0.2427,0.2446,0.234,0.2248,0.2147,0,0,0,0,0,0.1364,0.1368,0.1415,0.1463,0.1538,0.159,0.1708,0.1789,0.1968,0.1965,0.207,0.2158,0.2229,0.2317,0.2268,0.2454,0.2508,0.2384,0.2403,0.2537,0.2555,0.2451,0,0,0,0,0,0,0.1319,0.1357,0.1371,0.1352,0.1367,0.143,0.1499,0.1621,0.1626,0.1822,0.187,0.2025,0.2122,0.224,0.2229,0.2254,0.2219,0.2497,0.249,0.2527,0.2543,0.2557,0.2456,0,0,0,0,0]},{"header":{"parameterUnit":"m.s-1","parameterCategory":2,"la1":30.2991,"la2":30.254,"lo1":-89.0895,"lo2":-89.0444,"dy":0.0017,"dx":0.0017,"nx":28,"ny":28,"refTime":"2024-03-01T03:00:00:Z","depth":"4","parameterNumber":3,"parameterNumberName":"V-component_of_CURRENTS"},"data":[0,0,0,0,0,0,0,0,0,0,0,0,0,0,0,0,0,0,0,0,0,0,0,0,0,0,0,0,0,0,0,0,0,0,0,0,0,0,0,0,0,0,0,0,0,0,0,0,0,0,0,0,0,0,0,0,0,0,0.0058,0.0058,0,0.0031,0.003,0.003,0.0009,0.0009,0.0009,0.0009,-0.0046,-0.0048,-0.0049,0,0,0,0,0,0,0,0,0,0,0,0,0,0.0058,0.0058,0.0058,0.0058,0.0058,0.0031,0.003,0.003,0.0009,0.0009,0.0009,0.0009,-0.0046,-0.0048,-0.0049,0,0,0,0,0,0,0,0,0,0,0,0,0,0.0046,0.0058,0.0058,0.0045,0.0044,0.0031,0.003,0.0029,0.001,0.0009,0.0009,0.0009,-0.0045,-0.0047,-0.0049,-0.006,0,0,-0.0056,-0.0057,0,0,0,0,0,0,0,0,0.0046,0.0046,0.0047,0.0046,0.0045,0.0024,0.0009,-0.0002,0.001,0.0021,0.0009,0.0009,-0.0025,-0.0028,-0.0034,-0.0063,-0.0065,-0.0056,-0.0057,-0.0058,-0.0059,0,0,0,0,0,0,0,0.0047,0.0047,0.0046,0.0047,0.0046,0.0028,0.0027,0.0007,-0.0002,0.002,0.0019,0.0018,-0.0026,-0.0032,-0.0036,-0.0066,-0.0056,-0.0058,-0.0059,-0.006,-0.0103,-0.0103,0,0,0,0,0,0,0.0055,0.0048,0.0047,0.0046,0.0046,0.0029,0.0027,0.003,-0.0001,-0.0005,0.0018,0.0017,-0.0029,-0.0033,-0.0038,-0.0035,-0.0058,-0.006,-0.0062,-0.0103,-0.0103,-0.0103,0,0,0,0,0,0,0.0055,0.0055,0.0048,0.0046,0.0044,0.0029,0.0033,0.003,0.0026,-0.0003,-0.0008,0.0019,-0.0029,-0.0035,-0.0047,-0.0038,-0.0061,-0.0063,-0.0103,-0.0103,-0.0103,-0.004,0,0,0,0,0,0,0.0055,0.0056,0.006,0.0047,0.0045,0.0048,0.0033,0.0029,0.0026,0.0025,-0.0004,-0.0009,-0.003,-0.0044,-0.005,-0.0041,-0.0065,-0.0103,-0.0103,-0.0103,-0.0042,-0.0038,-0.0034,0,0,0,0,0,0.0056,0.0065,0.006,0.006,0.0051,0.0048,0.0046,0.0033,0.0026,0.0029,0.0011,-0.0008,-0.0047,-0.0045,-0.0052,-0.0044,-0.0103,-0.0103,-0.0103,-0.0044,-0.0039,-0.0034,0,0,0,0,0,0,0.0066,0.0063,0.0058,0.0066,0.006,0.0046,0.0046,0.0038,0.0026,0.0024,-0.0004,-0.0011,-0.002,-0.0042,-0.004,-0.0057,-0.0079,-0.008,-0.0033,-0.0028,-0.0024,-0.0006,-0.0067,0,0,0,0,0,0.0071,0.0077,0.007,0.0075,0.0075,0.0061,0.0058,0.0051,0.0039,0.0034,0.0015,-0.0008,-0.0025,-0.0033,-0.0054,-0.0061,-0.0088,-0.0062,-0.0058,-0.0054,-0.0045,-0.008,-0.0078,-0.0102,-0.0102,-0.0102,0,0,0.0075,0.0075,0.0078,0.0078,0.0071,0.0082,0.0059,0.006,0.007,0.0029,0.0033,0.0006,-0.0024,-0.003,-0.0037,-0.0046,-0.0062,-0.0053,-0.005,-0.0043,-0.008,-0.0077,-0.0075,-0.0101,-0.0101,-0.0102,0,0,0.0093,0.0089,0.0102,0.0103,0.01,0.0096,0.01,0.009,0.0086,0.0084,0.0059,0.004,0.0014,-0.0003,-0.0015,-0.0002,-0.004,-0.0012,0.0026,-0.0007,-0.0006,-0.0004,-0.0035,-0.0037,-0.0008,-0.0008,-0.0008,0,0.0099,0.0117,0.0104,0.0119,0.0128,0.0108,0.0129,0.0124,0.0111,0.0112,0.0094,0.0057,0.0029,0.0025,0.0029,0.001,-0.0016,0.0013,-0.0001,-0.0,0.0,-0.0032,-0.0035,-0.0005,-0.0005,-0.0005,-0.0006,0,0.0127,0.0143,0.0152,0.0168,0.0174,0.0188,0.0184,0.0189,0.0179,0.0168,0.0157,0.0117,0.0098,0.0082,0.0061,0.0052,0.0031,0.0009,-0.0009,0.0007,-0.0029,-0.0033,-0.0,-0.0002,-0.0002,-0.0003,0,0,0.0141,0.0168,0.0172,0.0194,0.0204,0.0216,0.0236,0.0248,0.0264,0.0235,0.0249,0.0207,0.0179,0.0163,0.0129,0.0098,0.0073,0.006,0.0057,0.0037,-0.0,-0.0014,-0.0021,0.0048,0.0048,0.0047,-0.0025,0,0.0171,0.0215,0.0219,0.0265,0.0292,0.029,0.0318,0.0323,0.031,0.0316,0.0271,0.0262,0.0213,0.0204,0.0167,0.0099,0.0065,0.0095,-0.002,-0.0023,-0.0031,-0.0025,0.0046,-0.0029,-0.003,-0.003,-0.0031,0,0.0201,0.023,0.0281,0.0332,0.0344,0.0369,0.0408,0.0427,0.0424,0.0413,0.0387,0.0347,0.0308,0.026,0.0153,0.0175,0.0096,0.0035,0.003,-0.0006,-0.0045,-0.0051,-0.0039,-0.0038,-0.0038,-0.0037,-0.0037,0,0.0226,0.0277,0.0324,0.0338,0.0388,0.0416,0.0444,0.0456,0.0482,0.0469,0.0478,0.0415,0.0395,0.0289,0.0163,0.0157,0.0039,0.0012,-0.0076,-0.0078,-0.0071,-0.0072,-0.0067,-0.0067,-0.0066,-0.0066,-0.0066,0,0.0259,0.0298,0.0342,0.0368,0.044,0.0456,0.0517,0.0532,0.0556,0.0593,0.0531,0.0536,0.04,0.0317,0.0189,0.0049,0.0055,-0.0065,-0.0096,-0.0044,-0.0041,-0.0074,-0.0074,-0.0069,-0.0068,-0.0068,-0.0067,0,0.0278,0.0306,0.0366,0.0426,0.0453,0.0502,0.0577,0.0617,0.0632,0.0679,0.0682,0.0627,0.0518,0.0371,0.02,0.0093,-0.0051,-0.0107,-0.0031,-0.0058,-0.0153,-0.0148,-0.0206,-0.0207,-0.0208,-0.0208,-0.0209,0,0.0291,0.0323,0.0404,0.0448,0.0478,0.0551,0.061,0.0653,0.0692,0.0732,0.0757,0.0682,0.0622,0.0385,0.0211,-0.0029,-0.0071,-0.0147,-0.0158,-0.0141,-0.0166,-0.0161,-0.0155,-0.021,-0.0211,-0.0211,-0.0211,0,0.0314,0.0342,0.0392,0.0483,0.055,0.0631,0.0708,0.0746,0.0803,0.0819,0.0824,0.0713,0.0594,0.0396,0.0211,0.0033,-0.0099,-0.0158,-0.0157,-0.0168,-0.0148,-0.017,-0.0164,-0.0214,-0.0214,-0.0213,-0.0213,0,0.033,0.0368,0.0435,0.0518,0.0605,0.0688,0.0728,0.0786,0.0835,0.0874,0.0871,0.0751,0.0683,0.0428,0.0254,0.0082,0.003,-0.0036,-0.0043,-0.0042,0.0018,0.0068,0.0048,0,0,0,0,0,0.0346,0.0392,0.0465,0.0558,0.0643,0.0699,0.079,0.0821,0.0874,0.0889,0.0885,0.0776,0.0546,0.0445,0.0271,0.0208,-0.0021,-0.0006,-0.0106,-0.0232,-0.0228,-0.0187,0,0,0,0,0,0,0.0358,0.0426,0.0465,0.0578,0.0642,0.0744,0.0805,0.0842,0.0845,0.0873,0.0753,0.0718,0.0486,0.0648,0.0265,0.0213,0.0121,-0.0108,-0.0112,-0.0234,-0.023,-0.0227,-0.0184,0,0,0,0,0]}]]